星链-36598(STARLINK-36598)

导读 | 豆包AI

STARLINK-36598是由美国发射的星链系列卫星,发射于2026年2月16日。星链项目是美国太空探索技术公司打造的低轨卫星互联网星座,通过大规模部署卫星实现全球覆盖的高速互联网服务。该卫星入轨后将融入现有星链网络,补充增强星座的通信服务能力,为全球用户提供天基互联网接入服务。

基本信息
目录编号:
67844
目录名称:
STARLINK-36598
国际标识:
2026-033Z
轨道中心:
EARTH
卫星名称:
星链-36598
卫星全名:
星链-36598(STARLINK-36598)
卫星状态:
在轨 (已飞行98 天)
发射日期:
2026-02-16 UTC
国别 :
美国 (US)
星等 :
--
轨道信息
数据来源 国际轨道数据
星历时间: 2026-05-25T11:40:07+0800
4小时前
查看轨道信息
半长轴: 6861.16km
偏心率: 0.000129
轨道倾角: 42.999°
近地点辐角 271.585°
升交点赤经 195.613°
平近点角 88.486°
近地点: 482.137km
远地点: 483.909km
周期: 94.266分钟
每日圈数: 15.275888
详细信息
固有亮度:
5
最大亮度:
2.5
卫星平台:
Starlink V1.0
覆盖范围:
全球
运营商:
太空探索技术公司
运营商所在国:
美国
制造商(研发单位):
太空探索技术公司
制造商所在国:
美国
使用方式:
暂无
卫星简介
Starlink 计划是 SpaceX 推出的全球卫星互联网项目,通过发射低轨道卫星,为全球尤其是偏远地区提供高速、低延迟的互联网服务。自 2019 年起,Starlink 已部署数千颗卫星,旨在缩小全球数字鸿沟,推动互联网普及。该项目还为军事、航空等行业提供通信支持,带来广泛经济效益。
2D轨道图
3D轨道图
轨道高度分析图
轨道倾角分析图
轨道综合分析图
查看轨道综合分析图